When you browse on this site, cookies collect data to enhance your experience and personalize the content and advertising you see.
Visit our Privacy Policy to learn more. By continuing to use the site, you agree to this use of cookies and data.
  • Em Portugal
  • Lista de países
  • Para 7 dias
  • Temperatura da água
  • Mapa do tempo
  • Widgets de tempo
  • user-avatar
    Iniciar Sessão

    Previsão horária em Kisangani

    Hoje, 16 Dezembro, Segunda-feira

    Tempo Temperatura Precipitação Vento Pressão Humidade
    00:00 +24°C° 0 mm 1 m/s 717 mmHg 95%
    01:00 +23°C° 0 mm 1 m/s 717 mmHg 96%
    02:00 +23°C° 0 mm 1 m/s 717 mmHg 97%
    03:00 +23°C° 0 mm 1 m/s 717 mmHg 98%
    04:00 +21°C° 0 mm 0 m/s 717 mmHg 98%
    05:00 +21°C° 0 mm 0 m/s 717 mmHg 99%
    06:00 +23°C° 0.1 mm 1 m/s 718 mmHg 97%
    07:00 +24°C° 0.1 mm 1 m/s 718 mmHg 96%
    08:00 +24°C° 0.1 mm 1 m/s 719 mmHg 95%
    09:00 +25°C° 0.1 mm 1 m/s 719 mmHg 92%
    10:00 +26°C° 0.1 mm 1 m/s 719 mmHg 88%
    11:00 +26°C° 0.1 mm 1 m/s 719 mmHg 85%
    12:00 +28°C° 0 mm 1 m/s 718 mmHg 80%
    13:00 +29°C° 0 mm 1 m/s 717 mmHg 74%
    14:00 +30°C° 0 mm 1 m/s 716 mmHg 69%
    15:00 +30°C° 0.2 mm 1 m/s 716 mmHg 68%
    16:00 +30°C° 0.2 mm 1 m/s 716 mmHg 68%
    17:00 +28°C° 0.2 mm 0 m/s 715 mmHg 67%
    18:00 +26°C° 0.3 mm 0 m/s 716 mmHg 74%
    19:00 +25°C° 0.3 mm 0 m/s 716 mmHg 80%
    20:00 +23°C° 0.3 mm 0 m/s 716 mmHg 86%
    21:00 +23°C° 0.5 mm 0 m/s 716 mmHg 89%
    22:00 +22°C° 0.5 mm 0 m/s 717 mmHg 91%
    23:00 +22°C° 0.5 mm 0 m/s 717 mmHg 93%

    Amanhã, 17 Dezembro, Terça-feira

    Tempo Temperatura Precipitação Vento Pressão Humidade
    00:00 +22°C° 0 mm 0 m/s 716 mmHg 92%
    01:00 +24°C° 0 mm 1 m/s 716 mmHg 92%
    02:00 +24°C° 0 mm 1 m/s 715 mmHg 91%
    03:00 +23°C° 0 mm 1 m/s 715 mmHg 93%
    04:00 +23°C° 0 mm 1 m/s 715 mmHg 94%
    05:00 +23°C° 0 mm 1 m/s 715 mmHg 96%
    06:00 +24°C° 0 mm 1 m/s 716 mmHg 94%
    07:00 +24°C° 0 mm 1 m/s 717 mmHg 91%
    08:00 +25°C° 0 mm 1 m/s 717 mmHg 89%
    09:00 +27°C° 0 mm 1 m/s 717 mmHg 80%
    10:00 +29°C° 0 mm 1 m/s 717 mmHg 70%
    11:00 +31°C° 0 mm 1 m/s 717 mmHg 60%
    12:00 +32°C° 0 mm 1 m/s 717 mmHg 57%
    13:00 +33°C° 0 mm 1 m/s 716 mmHg 54%
    14:00 +34°C° 0 mm 1 m/s 715 mmHg 51%
    15:00 +32°C° 0.5 mm 1 m/s 715 mmHg 59%
    16:00 +31°C° 0.5 mm 1 m/s 714 mmHg 67%
    17:00 +30°C° 0.5 mm 1 m/s 714 mmHg 75%
    18:00 +28°C° 0.1 mm 1 m/s 714 mmHg 80%
    19:00 +27°C° 0.1 mm 1 m/s 715 mmHg 85%
    20:00 +25°C° 0.1 mm 1 m/s 715 mmHg 90%
    21:00 +25°C° 0.1 mm 1 m/s 716 mmHg 90%
    22:00 +23°C° 0.1 mm 0 m/s 716 mmHg 91%
    23:00 +22°C° 0.1 mm 0 m/s 717 mmHg 92%

    Depois de amanhã, 18 Dezembro, Quarta-feira

    Tempo Temperatura Precipitação Vento Pressão Humidade
    00:00 +22°C° 0.6 mm 0 m/s 716 mmHg 93%
    01:00 +22°C° 0.6 mm 0 m/s 716 mmHg 93%
    02:00 +22°C° 0.6 mm 0 m/s 716 mmHg 94%
    03:00 +22°C° 0.1 mm 0 m/s 716 mmHg 94%
    04:00 +22°C° 0.1 mm 0 m/s 716 mmHg 95%
    05:00 +22°C° 0.1 mm 0 m/s 716 mmHg 95%
    06:00 +24°C° 0 mm 1 m/s 716 mmHg 94%
    07:00 +24°C° 0 mm 1 m/s 717 mmHg 94%
    08:00 +24°C° 0 mm 1 m/s 718 mmHg 94%
    09:00 +26°C° 0.7 mm 1 m/s 718 mmHg 89%
    10:00 +27°C° 0.7 mm 1 m/s 718 mmHg 84%
    11:00 +28°C° 0.7 mm 1 m/s 718 mmHg 79%
    12:00 +29°C° 1 mm 1 m/s 717 mmHg 78%
    13:00 +27°C° 1 mm 0 m/s 716 mmHg 77%
    14:00 +27°C° 1 mm 0 m/s 715 mmHg 77%
    15:00 +28°C° 0.1 mm 0 m/s 715 mmHg 73%
    16:00 +28°C° 0.1 mm 0 m/s 715 mmHg 69%
    17:00 +29°C° 0.1 mm 0 m/s 715 mmHg 65%
    18:00 +27°C° 0 mm 0 m/s 715 mmHg 70%
    19:00 +25°C° 0 mm 0 m/s 716 mmHg 74%
    20:00 +24°C° 0 mm 0 m/s 716 mmHg 79%
    21:00 +24°C° 0 mm 0 m/s 716 mmHg 80%
    22:00 +23°C° 0 mm 0 m/s 717 mmHg 80%
    23:00 +23°C° 0 mm 0 m/s 717 mmHg 81%

    19 Dezembro, Quinta-feira

    Tempo Temperatura Precipitação Vento Pressão Humidade
    00:00 +23°C° 0 mm 0 m/s 716 mmHg 81%
    01:00 +23°C° 0 mm 0 m/s 716 mmHg 81%
    02:00 +23°C° 0 mm 0 m/s 716 mmHg 81%
    03:00 +23°C° 0 mm 0 m/s 716 mmHg 81%
    04:00 +23°C° 0 mm 0 m/s 716 mmHg 81%
    05:00 +23°C° 0 mm 0 m/s 716 mmHg 80%
    06:00 +23°C° 0 mm 0 m/s 717 mmHg 80%
    07:00 +23°C° 0 mm 0 m/s 717 mmHg 80%
    08:00 +24°C° 0 mm 0 m/s 718 mmHg 80%
    09:00 +26°C° 0 mm 0 m/s 718 mmHg 69%
    10:00 +31°C° 0 mm 1 m/s 718 mmHg 58%
    11:00 +34°C° 0 mm 1 m/s 718 mmHg 47%
    12:00 +35°C° 0 mm 1 m/s 717 mmHg 43%
    13:00 +35°C° 0 mm 1 m/s 717 mmHg 39%
    14:00 +36°C° 0 mm 1 m/s 716 mmHg 36%
    15:00 +34°C° 0 mm 1 m/s 716 mmHg 43%
    16:00 +33°C° 0 mm 1 m/s 715 mmHg 50%
    17:00 +31°C° 0 mm 1 m/s 715 mmHg 57%
    18:00 +30°C° 0.1 mm 1 m/s 715 mmHg 64%
    19:00 +28°C° 0.1 mm 1 m/s 716 mmHg 72%
    20:00 +26°C° 0.1 mm 1 m/s 716 mmHg 79%
    21:00 +26°C° 0 mm 1 m/s 716 mmHg 82%
    22:00 +26°C° 0 mm 1 m/s 717 mmHg 84%
    23:00 +25°C° 0 mm 1 m/s 717 mmHg 87%

    20 Dezembro, Sexta-feira

    Tempo Temperatura Precipitação Vento Pressão Humidade
    00:00 +25°C° 0 mm 1 m/s 717 mmHg 88%
    01:00 +24°C° 0 mm 1 m/s 717 mmHg 90%
    02:00 +24°C° 0 mm 1 m/s 716 mmHg 91%
    03:00 +24°C° 0.1 mm 1 m/s 717 mmHg 93%
    04:00 +23°C° 0.1 mm 1 m/s 717 mmHg 95%
    05:00 +23°C° 0.1 mm 1 m/s 717 mmHg 96%
    06:00 +23°C° 0 mm 1 m/s 717 mmHg 94%
    07:00 +24°C° 0 mm 1 m/s 718 mmHg 92%
    08:00 +25°C° 0 mm 1 m/s 719 mmHg 90%
    09:00 +27°C° 0 mm 1 m/s 719 mmHg 81%
    10:00 +29°C° 0 mm 2 m/s 719 mmHg 72%
    11:00 +31°C° 0 mm 2 m/s 719 mmHg 62%
    12:00 +31°C° 0.9 mm 2 m/s 718 mmHg 67%
    13:00 +30°C° 0.9 mm 1 m/s 717 mmHg 72%
    14:00 +30°C° 0.9 mm 1 m/s 716 mmHg 76%
    15:00 +29°C° 0.6 mm 1 m/s 716 mmHg 78%
    16:00 +29°C° 0.6 mm 1 m/s 716 mmHg 80%
    17:00 +28°C° 0.6 mm 1 m/s 715 mmHg 82%
    18:00 +27°C° 0.2 mm 1 m/s 716 mmHg 86%
    19:00 +25°C° 0.2 mm 1 m/s 716 mmHg 90%
    20:00 +24°C° 0.2 mm 1 m/s 717 mmHg 94%
    21:00 +24°C° 0.1 mm 1 m/s 717 mmHg 95%
    22:00 +24°C° 0.1 mm 1 m/s 717 mmHg 95%
    23:00 +23°C° 0.1 mm 1 m/s 718 mmHg 96%

    21 Dezembro, Sábado

    Tempo Temperatura Precipitação Vento Pressão Humidade
    00:00 +23°C° 0 mm 1 m/s 717 mmHg 96%
    01:00 +23°C° 0 mm 1 m/s 717 mmHg 96%
    02:00 +23°C° 0 mm 1 m/s 717 mmHg 96%
    03:00 +23°C° 0 mm 1 m/s 717 mmHg 97%
    04:00 +23°C° 0 mm 1 m/s 717 mmHg 97%
    05:00 +20°C° 0 mm 0 m/s 717 mmHg 98%
    06:00 +23°C° 0 mm 1 m/s 717 mmHg 96%
    07:00 +24°C° 0 mm 1 m/s 718 mmHg 93%
    08:00 +24°C° 0 mm 1 m/s 719 mmHg 91%
    09:00 +27°C° 0 mm 1 m/s 719 mmHg 79%
    10:00 +29°C° 0 mm 1 m/s 719 mmHg 68%
    11:00 +31°C° 0 mm 1 m/s 719 mmHg 57%
    12:00 +33°C° 0 mm 1 m/s 718 mmHg 52%
    13:00 +34°C° 0 mm 1 m/s 717 mmHg 47%
    14:00 +34°C° 0 mm 0 m/s 717 mmHg 41%
    15:00 +33°C° 0 mm 0 m/s 717 mmHg 47%
    16:00 +31°C° 0 mm 0 m/s 716 mmHg 52%
    17:00 +30°C° 0 mm 0 m/s 716 mmHg 57%
    18:00 +28°C° 0.1 mm 0 m/s 716 mmHg 64%
    19:00 +28°C° 0.1 mm 1 m/s 717 mmHg 72%
    20:00 +26°C° 0.1 mm 1 m/s 717 mmHg 79%
    21:00 +25°C° 0.7 mm 1 m/s 717 mmHg 85%
    22:00 +24°C° 0.7 mm 1 m/s 717 mmHg 91%
    23:00 +23°C° 0.7 mm 1 m/s 718 mmHg 97%
    Mostrar mais